Zurück zum Katalog

STARLINK-5417

AktivKommunikationVLEO
NORAD 54805·PAYLOAD·🇺🇸 United States

Gestartet Dec 17, 2022 von Cape Canaveral Space Force Station

Loading…

Nächste Überflüge (nächste 24 Stunden)

TLE

AktuellSource: CelesTrak SupGP

Epoche: Sep 14, 2026, 20:42 UTC

1 54805C 22175AZ  26257.86298611  .00044621  00000+0  28619-2 0  2573
2 54805  53.1575 259.8720 0001254  70.6185 260.7825 15.07988084    13

Verfolge STARLINK-5417 in Echtzeit mit AllMySat

Download on the App Store